Weather History for Freeport, IL

Change the Weather History Date:

Friday, November 25, 2011

  Actual Average Record
Temperature  
Mean Temperature 46 °F -  
Max Temperature 52 °F 40 °F 57 °F (1988)
Min Temperature 41 °F 22 °F 5 °F (1985)
Degree Days  
Heating Degree Days 18    
Moisture  
Dew Point 41 °F    
Average Humidity 81    
Maximum Humidity 88    
Minimum Humidity 70    
Precipitation  
Precipitation 0.00 in - - ()
Sea Level Pressure  
Sea Level Pressure 29.91 in    
Wind  
Wind Speed 17 mph (South)    
Max Wind Speed 21 mph    
Max Gust Speed 28 mph    
Visibility 10 miles    
Events      
Averages and records for this station are not official NWS values.
T = Trace of Precipitation, MM = Missing Value Source: NWS Daily Summary

Daily Weather History Graph

Daily Weather History Graph

Search for Another Location

Airport:

Trip Planner

Search our weather history database for the weather conditions in past years. The results will help you decide how hot, cold, wet, or windy it might be!

Date:

Astronomy

Nov. 25, 2011 Rise Set
Actual Time 7:00 AM CST 4:29 PM CST
Civil Twilight 6:29 AM CST 5:00 PM CST
Nautical Twilight 5:55 AM CST 5:35 PM CST
Astronomical Twilight 5:21 AM CST 6:08 PM CST
Moon 7:29 AM CST (11/25) 4:56 PM CST (11/25)
Length of Visible Light 10h 30m
Length of Day
9h 29m
New Moon, 0% of the Moon is Illuminated
Nov 25
New Moon
Dec 2
First Quarter
Dec 10
Full
Dec 17
Last Quarter
Dec 24
New

Hourly Weather History & Observations

Time (CST) Temp. Windchill Dew Point Humidity Pressure Visibility Wind Dir Wind Speed Gust Speed Precip Events Conditions
12:15 AM 44.2 °F 36.2 °F 40.3 °F 86% 29.98 in 10.0 mi South 19.6 mph 26.5 mph N/A   Clear
12:35 AM 44.2 °F 36.4 °F 40.1 °F 85% 29.97 in 10.0 mi South 18.4 mph 25.3 mph N/A   Clear
12:55 AM 43.9 °F 35.7 °F 40.1 °F 87% 29.97 in 10.0 mi South 19.6 mph 25.3 mph N/A   Clear
1:15 AM 44.1 °F 35.7 °F 40.1 °F 86% 29.96 in 10.0 mi South 20.7 mph 24.2 mph N/A   Clear
1:35 AM 43.3 °F 35.2 °F 39.4 °F 86% 29.96 in 10.0 mi South 18.4 mph 27.6 mph N/A   Clear
1:55 AM 43.2 °F 34.5 °F 39.2 °F 86% 29.96 in 10.0 mi South 20.7 mph 25.3 mph N/A   Clear
2:15 AM 43.7 °F 35.7 °F 39.4 °F 85% 29.96 in 10.0 mi South 18.4 mph 23.0 mph N/A   Clear
2:35 AM 43.5 °F 35.5 °F 39.2 °F 85% 29.96 in 10.0 mi South 18.4 mph 23.0 mph N/A   Clear
2:55 AM 43.0 °F 34.8 °F 39.2 °F 86% 29.95 in 10.0 mi South 18.4 mph 25.3 mph N/A   Clear
3:15 AM 43.0 °F 35.1 °F 39.2 °F 86% 29.94 in 10.0 mi South 17.3 mph 23.0 mph N/A   Clear
3:35 AM 43.0 °F 35.4 °F 39.2 °F 86% 29.94 in 10.0 mi South 16.1 mph 24.2 mph N/A   Clear
3:55 AM 42.3 °F 34.1 °F 38.5 °F 86% 29.95 in 10.0 mi South 17.3 mph - N/A   Clear
4:15 AM 42.8 °F 34.8 °F 37.4 °F 81% 29.94 in 10.0 mi South 17.3 mph 20.7 mph N/A   Clear
4:35 AM 41.9 °F 32.8 °F 37.9 °F 86% 29.94 in 10.0 mi South 20.7 mph - N/A   Clear
4:55 AM 41.9 °F 33.4 °F 37.9 °F 86% 29.94 in 10.0 mi South 18.4 mph 23.0 mph N/A   Clear
5:15 AM 41.9 °F 33.4 °F 37.9 °F 86% 29.94 in 10.0 mi South 18.4 mph 23.0 mph N/A   Clear
5:35 AM 41.9 °F 32.8 °F 37.9 °F 86% 29.92 in 10.0 mi South 20.7 mph 26.5 mph N/A   Clear
5:55 AM 41.9 °F 33.1 °F 38.3 °F 87% 29.91 in 10.0 mi South 19.6 mph 26.5 mph N/A   Clear
6:15 AM 41.9 °F 34.0 °F 38.3 °F 87% 29.92 in 10.0 mi South 16.1 mph - N/A   Clear
6:35 AM 41.9 °F 33.4 °F 38.3 °F 87% 29.92 in 10.0 mi South 18.4 mph 24.2 mph N/A   Clear
6:55 AM 41.2 °F 32.4 °F 37.8 °F 88% 29.91 in 10.0 mi South 18.4 mph 24.2 mph N/A   Clear
7:15 AM 41.9 °F 33.4 °F 38.3 °F 87% 29.92 in 7.0 mi South 18.4 mph 25.3 mph N/A   Clear
7:35 AM 41.7 °F 34.1 °F 38.3 °F 88% 29.93 in 7.0 mi South 15.0 mph 20.7 mph N/A   Clear
7:55 AM 41.9 °F 34.6 °F 38.1 °F 86% 29.93 in 7.0 mi South 13.8 mph 24.2 mph N/A   Clear
8:15 AM 41.9 °F 34.3 °F 37.9 °F 86% 29.93 in 7.0 mi South 15.0 mph 23.0 mph N/A   Clear
8:35 AM 41.9 °F 33.1 °F 37.9 °F 86% 29.93 in 7.0 mi South 19.6 mph - N/A   Clear
8:55 AM 41.9 °F 34.0 °F 37.8 °F 85% 29.93 in 7.0 mi South 16.1 mph 23.0 mph N/A   Clear
9:15 AM 43.0 °F 34.2 °F 38.7 °F 85% 29.92 in 10.0 mi South 20.7 mph 24.2 mph N/A   Clear
9:35 AM 43.3 °F 35.5 °F 39.0 °F 85% 29.93 in 10.0 mi South 17.3 mph 24.2 mph N/A   Clear
9:55 AM 44.6 °F 37.4 °F 39.2 °F 81% 29.93 in 10.0 mi South 16.1 mph 24.2 mph N/A   Clear
10:15 AM 45.1 °F 37.9 °F 40.1 °F 82% 29.92 in 10.0 mi South 17.3 mph 24.2 mph N/A   Clear
10:35 AM 46.2 °F 39.8 °F 40.8 °F 81% 29.92 in 10.0 mi South 15.0 mph - N/A   Clear
10:55 AM 49.5 °F - 42.8 °F 78% 29.91 in 10.0 mi South 13.8 mph 24.2 mph N/A   Clear
11:15 AM 50.9 °F - 43.5 °F 76% 29.90 in 10.0 mi South 18.4 mph 23.0 mph N/A   Clear
11:35 AM 52.0 °F - 43.7 °F 73% 29.88 in 10.0 mi South 18.4 mph 23.0 mph N/A   Clear
11:55 AM 52.0 °F - 43.0 °F 71% 29.87 in 10.0 mi South 18.4 mph 23.0 mph N/A   Clear
12:15 PM 52.0 °F - 42.4 °F 70% 29.86 in 10.0 mi South 18.4 mph - N/A   Clear
12:35 PM 52.0 °F - 42.4 °F 70% 29.86 in 10.0 mi South 18.4 mph 24.2 mph N/A   Clear
12:55 PM 52.0 °F - 42.8 °F 71% 29.86 in 10.0 mi South 16.1 mph 24.2 mph N/A   Clear
1:15 PM 52.0 °F - 42.8 °F 71% 29.85 in 10.0 mi South 17.3 mph 25.3 mph N/A   Scattered Clouds
1:35 PM 52.0 °F - 42.8 °F 71% 29.85 in 10.0 mi South 20.7 mph 26.5 mph N/A   Clear
1:55 PM 52.0 °F - 42.8 °F 71% 29.85 in 10.0 mi South 17.3 mph - N/A   Clear
2:15 PM 52.0 °F - 42.8 °F 71% 29.85 in 10.0 mi South 18.4 mph - N/A   Scattered Clouds
2:35 PM 52.0 °F - 42.8 °F 71% 29.84 in 10.0 mi South 18.4 mph 23.0 mph N/A   Clear
2:55 PM 52.0 °F - 43.0 °F 71% 29.84 in 10.0 mi South 13.8 mph 20.7 mph N/A   Clear
3:15 PM 52.0 °F - 43.2 °F 72% 29.84 in 10.0 mi South 15.0 mph - N/A   Clear
3:35 PM 52.0 °F - 43.7 °F 73% 29.84 in 10.0 mi SSW 8.1 mph - N/A   Clear
3:55 PM 52.0 °F - 44.2 °F 75% 29.86 in 10.0 mi SSW 9.2 mph - N/A   Clear
4:15 PM 52.0 °F - 45.5 °F 79% 29.85 in 10.0 mi SSW 8.1 mph - N/A   Clear
4:35 PM 49.5 °F - 43.7 °F 81% 29.85 in 10.0 mi South 9.2 mph - N/A   Clear
4:55 PM 49.1 °F - 43.5 °F 81% 29.85 in 10.0 mi South 9.2 mph - N/A   Clear
5:15 PM 46.6 °F - 41.7 °F 83% 29.86 in 10.0 mi South 5.8 mph - N/A   Clear
5:35 PM 46.4 °F 42.9 °F 41.9 °F 84% 29.86 in 10.0 mi South 6.9 mph - N/A   Mostly Cloudy
5:55 PM 47.5 °F - 42.6 °F 83% 29.87 in 10.0 mi South 5.8 mph - N/A   Overcast
6:15 PM 48.7 °F - 43.7 °F 83% 29.86 in 10.0 mi South 4.6 mph - N/A   Overcast
6:35 PM 46.0 °F 44.8 °F 41.5 °F 84% 29.86 in 10.0 mi SSE 3.5 mph - N/A   Mostly Cloudy
6:55 PM 45.0 °F - 41.0 °F 86% 29.86 in 10.0 mi Calm Calm - N/A   Mostly Cloudy
7:15 PM 44.6 °F 43.1 °F 41.0 °F 87% 29.87 in 10.0 mi SSE 3.5 mph - N/A   Overcast
7:35 PM 45.5 °F 43.2 °F 41.7 °F 87% 29.87 in 10.0 mi SE 4.6 mph - N/A   Overcast
7:55 PM 45.7 °F 43.4 °F 41.9 °F 87% 29.86 in 10.0 mi SSE 4.6 mph - N/A   Overcast
8:15 PM 46.8 °F - 42.8 °F 86% 29.86 in 10.0 mi SE 4.6 mph - N/A   Overcast
8:35 PM 47.8 °F - 43.5 °F 85% 29.86 in 10.0 mi SE 3.5 mph - N/A   Overcast
8:55 PM 48.0 °F - 43.9 °F 86% 29.85 in 10.0 mi SE 3.5 mph - N/A   Overcast
9:15 PM 47.1 °F - 43.0 °F 86% 29.85 in 10.0 mi ESE 4.6 mph - N/A   Overcast
9:35 PM 47.1 °F - 43.0 °F 86% 29.84 in 10.0 mi ESE 5.8 mph - N/A   Overcast
9:55 PM 50.0 °F - 44.6 °F 82% 29.84 in 10.0 mi SE 11.5 mph - N/A   Overcast
10:15 PM 49.5 °F - 44.6 °F 83% 29.83 in 10.0 mi SSE 11.5 mph - N/A   Overcast
10:35 PM 52.0 °F - 46.8 °F 82% 29.84 in 10.0 mi SSE 12.7 mph - N/A   Overcast
10:55 PM 52.0 °F - 46.6 °F 82% 29.83 in 10.0 mi SSE 15.0 mph - N/A   Overcast
11:15 PM 52.0 °F - 46.6 °F 82% 29.83 in 10.0 mi SSE 13.8 mph - N/A   Scattered Clouds
11:35 PM 52.0 °F - 46.4 °F 81% 29.83 in 10.0 mi SSE 12.7 mph 19.6 mph N/A   Mostly Cloudy
11:55 PM 52.0 °F - 46.4 °F 81% 29.83 in 10.0 mi SSE 12.7 mph - N/A   Overcast